User: anonymous   Login
Location: Unspecified
(0.0000°N, 0.0000°E)
Time: 06:46:19
(UTC+00:00)
Language:

PRISM - Orbit

View from above orbital plane
View from above orbital plane
View from above satellite
View from above satellite

Ground track
Ground track

The orbit data is extracted from the following two-line orbital elements,

1 33493U 09002B   17087.87948554 +.00002126 +00000-0 +19716-3 0  9994
2 33493 098.1798 326.8777 0015531 354.8766 005.2307 14.95533720443771
Epoch (UTC): 28 March 2017 21:06:27
Eccentricity: 0.0015531
inclination: 98.1798°
perigee height: 570 km
apogee height: 591 km
right ascension of ascending node: 326.8777°
argument of perigee: 354.8766°
revolutions per day: 14.95533720
mean anomaly at epoch: 5.2307°
orbit number at epoch: 44377

The dashed part of the orbit path shows where the satellite is in the earth's shadow,  

DLR